Location: Solstice Park, West Seattle
(47.5363°N, 122.3905°W)
Time: 07:43:10
(UTC-07:00)

ISS - Pass Details

Date: 13 May 2021
Orbit: 417 x 422 km, 51.6° (Epoch: 18 June)

Event Time Altitude Azimuth Distance (km) Brightness Sun altitude
Exits shadow 00:48:23 22° 55° (NE) 964 -1.7 -23.9°
Drops below altitude 10° 00:49:44 10° 63° (ENE) 1,483 -0.7 -23.9°
Sets 00:51:56 0° 68° (ENE) 2,376 0.3 -23.9°
